Stations météo

Publicité
Millau, France (7558): Température de l'air & dewpoint: 12.01.2018 14:00:00 - 18.01.2018 14:00:00 (CET)Millau, France (7558): Température de l'air 5cm: 12.01.2018 14:00:00 - 18.01.2018 14:00:00 (CET)Millau, France (7558): Température de l'air -20cm & Température de l'air -100cm: 12.01.2018 14:00:00 - 18.01.2018 14:00:00 (CET)Millau, France (7558): Vitesse du vent & gusts: 12.01.2018 14:00:00 - 18.01.2018 14:00:00 (CET)Millau, France (7558): Direction du vent: 12.01.2018 14:00:00 - 18.01.2018 14:00:00 (CET)Millau, France (7558): reduced air pressure: 12.01.2018 14:00:00 - 18.01.2018 14:00:00 (CET)Millau, France (7558): visibility: 12.01.2018 14:00:00 - 18.01.2018 14:00:00 (CET)Millau, France (7558): Ensoleillement: 12.01.2018 14:00:00 - 18.01.2018 14:00:00 (CET)Millau, France (7558): Quantités de précipitations: 12.01.2018 14:00:00 - 18.01.2018 14:00:00 (CET)
Date & Time tt [°C] td [°C] tt 5cm [°C] tt -20cm [°C] tt -100cm [°C] ff [km/h] ff [knt] fx [km/h] fx [knt] dd ppp [hPa] vv [km] sd [min] rr [mm]
18.01.2018 14:00:00 5,4 5,3 5,7 5,5 6,9 14 8 21 11 WSW 1021,4 6 1 0,0
18.01.2018 13:00:00 5,3 5,2 4,6 5,4 6,9 13 7 22 12 W 1022,3 2,8 0 0,0
18.01.2018 12:00:00 4,5 4,4 3,8 5,4 6,9 14 7 19 11 WSW 1023,3 0,8 0 0,0
18.01.2018 11:00:00 4,0 3,9 3,5 5,5 6,9 10 5 15 8 SW 1023,8 0,2 0 0,0
18.01.2018 10:00:00 3,7 3,6 2,9 5,5 6,9 10 6 19 10 WSW 1023,9 1,6 0 0,0
18.01.2018 09:00:00 3,4 3,3 2,6 5,5 6,9 11 6 18 10 WSW 1024,0 0,3 0 0,0
18.01.2018 08:00:00 3,3 3,2 2,4 5,5 6,9 18 10 29 16 W 1024,1 0,5 0 0,0
18.01.2018 07:00:00 3,2 3,1 2,4 5,5 6,9 11 6 29 16 W 1023,8 9 0 0,0
18.01.2018 06:00:00 3,1 2,8 2,1 5,5 6,9 9 5 24 13 WSW 1024,0 3,5 0 0,0
18.01.2018 05:00:00 2,8 2,5 1,7 5,6 6,9 18 10 25 13 W 1024,4 6 0 0,0
18.01.2018 04:00:00 2,7 2,4 1,6 5,6 6,9 19 10 41 22 W 1024,8 0,4 0 0,2
18.01.2018 03:00:00 2,8 2,1 1,4 5,6 6,9 22 12 50 27 W 1025,0 20 0 0,0
18.01.2018 02:00:00 2,9 1,7 1,3 5,7 6,9 23 13 39 21 WNW 1024,9 20 0 0,0
18.01.2018 01:00:00 2,3 1,7 1,2 5,7 6,9 22 12 29 16 W 1025,6 14 0 0,0
18.01.2018 00:00:00 3,3 0,7 2,1 5,7 6,9 21 11 34 19 WNW 1025,7 20 0 0,0
17.01.2018 23:00:00 3,1 0,5 1,6 5,8 6,9 21 11 57 31 WNW 1025,7 20 0 0,0
17.01.2018 22:00:00 2,8 1,2 1,7 5,8 6,9 13 7 33 18 W 1025,9 16 0 0,0
17.01.2018 21:00:00 3,0 -0,1 1,5 5,8 6,9 21 11 35 19 NW 1025,3 20 0 0,0
17.01.2018 20:00:00 3,2 0,3 2,2 5,8 6,9 20 11 48 26 WNW 1024,8 20 0 0,0
17.01.2018 19:00:00 3,5 0,7 2,1 5,9 6,9 27 15 49 26 NW 1024,1 20 0 0,0
17.01.2018 18:00:00 3,4 0,3 2,4 5,9 6,9 22 12 56 31 WNW 1024,0 20 6 0,0
17.01.2018 17:00:00 3,8 -0,2 3,4 5,9 6,9 28 15 66 35 WNW 1023,2 20 48 0,0
17.01.2018 16:00:00 4,2 -0,4 2,4 5,9 6,9 34 18 58 31 NW 1022,3 20 25 0,0
17.01.2018 15:00:00 3,6 0,1 3,2 5,9 6,9 44 24 98 53 NW 1021,9 20 31 0,0
17.01.2018 14:00:00 4,2 -0,6 3,3 5,9 6,9 64 35 91 49 NW 1020,5 20 33 0,0
17.01.2018 13:00:00 3,6 0,6 0,8 5,9 6,8 49 26 85 46 NW 1021,6 20 42 0,0
17.01.2018 12:00:00 1,5 0,3 0,8 6,0 6,8 53 28 87 47 NW 1022,3 8 3 0,6
17.01.2018 11:00:00 3,1 0,5 1,8 6,1 6,8 50 27 90 48 NW 1021,1 20 0 0,0
17.01.2018 10:00:00 2,6 0,5 1,2 6,1 6,8 55 30 92 50 NW 1019,9 20 1 0,0
17.01.2018 09:00:00 2,1 0,6 1,2 6,2 6,8 51 28 96 52 NW 1018,7 16 0 0,6
17.01.2018 08:00:00 3,1 0,8 1,9 6,2 6,8 63 34 100 54 NW 1016,9 19 0 0,0
17.01.2018 07:00:00 3,2 0,6 2,0 6,3 6,8 74 40 107 58 NW 1015,4 20 0 0,2
17.01.2018 06:00:00 3,7 2,7 2,9 6,3 6,8 43 23 114 61 WNW 1015,1 4,3 0 0,8
17.01.2018 05:00:00 5,1 2,3 3,5 6,3 6,8 57 31 111 60 WNW 1013,1 20 0 0,4
17.01.2018 04:00:00 5,9 3,1 4,3 6,3 6,8 64 35 119 65 WNW 1012,1 20 0 0,2
17.01.2018 03:00:00 5,8 4,0 4,5 6,3 6,8 62 33 100 54 WNW 1011,8 7 0 1,0
17.01.2018 02:00:00 6,4 4,9 5,2 6,3 6,8 55 30 90 49 WNW 1012,1 11 0 0,4
17.01.2018 01:00:00 7,7 6,5 6,6 6,3 6,8 48 26 93 50 WNW 1011,9 6 0 1,8
17.01.2018 00:00:00 7,9 7,0 7,1 6,2 6,8 42 23 76 41 W 1012,4 6 0 1,2
16.01.2018 23:00:00 8,4 6,7 7,4 6,2 6,8 45 25 98 53 W 1012,7 20 0 0,4
16.01.2018 22:00:00 8,1 7,5 7,4 6,2 6,8 34 18 83 45 W 1013,3 6 0 1,2
16.01.2018 21:00:00 8,2 7,1 7,4 6,1 6,8 40 22 71 39 W 1013,3 9 0 0,6
16.01.2018 20:00:00 8,4 6,9 7,3 6,1 6,8 47 25 84 46 W 1013,1 14 0 0,0
16.01.2018 19:00:00 8,4 7,6 7,3 6,0 6,8 29 15 66 36 W 1013,3 13 0 0,0
16.01.2018 18:00:00 8,5 7,1 7,4 6,0 6,8 34 18 63 34 W 1013,6 18 0 0,2
16.01.2018 17:00:00 8,5 7,7 7,9 5,9 6,8 28 15 49 27 W 1014,3 18 3 0,4
16.01.2018 16:00:00 8,4 7,8 7,8 5,8 6,8 23 12 58 31 W 1015,0 10 0 0,0
16.01.2018 15:00:00 8,3 7,5 7,8 5,8 6,8 26 14 63 34 W 1015,3 8 0 0,2
16.01.2018 14:00:00 8,3 7,9 7,9 5,7 6,8 31 17 47 26 W 1016,1 7 0 0,6
16.01.2018 13:00:00 8,0 7,2 7,7 5,6 6,8 22 12 61 33 W 1017,1 7 0 0,0
16.01.2018 12:00:00 8,0 7,4 7,4 5,6 6,8 24 13 59 32 W 1017,6 13 0 0,2
16.01.2018 11:00:00 7,9 6,2 6,8 5,6 6,8 33 18 77 41 W 1017,3 20 0 0,0
16.01.2018 10:00:00 7,6 6,7 6,8 5,6 6,8 29 15 67 36 W 1016,9 9 0 0,0
16.01.2018 09:00:00 7,4 6,8 6,8 5,5 6,8 26 14 47 26 W 1016,3 14 0 0,0
16.01.2018 08:00:00 7,2 7,1 6,6 5,5 6,8 22 12 43 23 W 1015,8 7 0 0,2
16.01.2018 07:00:00 7,0 6,9 6,2 5,5 6,8 24 13 45 24 WSW 1015,0 6 0 0,0
16.01.2018 06:00:00 6,6 6,5 5,6 5,5 6,8 19 11 41 22 WSW 1015,1 6 0 0,0
16.01.2018 05:00:00 5,8 5,8 4,7 5,5 6,9 14 7 33 18 SSW 1015,9 0,2 0 0,2
16.01.2018 04:00:00 5,0 4,9 4,2 5,5 6,8 21 12 36 19 SW 1016,4 0,4 0 0,4
16.01.2018 03:00:00 4,4 4,3 3,7 5,5 6,8 21 12 35 19 SW 1017,4 0,2 0 0,4
16.01.2018 02:00:00 4,0 3,9 3,5 5,5 6,8 27 14 39 21 SW 1017,9 0,7 0 0,0
16.01.2018 01:00:00 3,8 3,7 3,3 5,5 6,8 30 16 48 26 SW 1018,7 0,3 0 0,4
16.01.2018 00:00:00 3,5 3,2 3,1 5,5 6,8 28 15 53 29 SW 1018,9 0,2 0 0,2
15.01.2018 23:00:00 3,5 2,9 3,1 5,5 6,8 32 18 48 26 WSW 1019,3 4,9 0 0,2
15.01.2018 22:00:00 3,9 3,2 3,3 5,5 6,8 29 16 46 25 WSW 1019,4 8 0 0,4
15.01.2018 21:00:00 3,8 3,5 3,4 5,5 6,9 16 9 26 14 SW 1019,5 20 0 0,0
15.01.2018 20:00:00 3,8 3,5 3,6 5,5 6,9 14 7 25 14 SSW 1019,5 10 0 0,0
15.01.2018 19:00:00 3,9 3,6 3,5 5,5 6,9 18 10 23 13 SW 1019,7 6 0 0,0
15.01.2018 18:00:00 3,8 3,4 3,5 5,5 6,9 16 8 22 12 SW 1020,5 12 0 0,0
15.01.2018 17:00:00 4,0 3,4 3,6 5,5 6,8 13 7 26 14 SSW 1020,6 20 0 0,0
15.01.2018 16:00:00 4,2 3,6 4,0 5,4 6,9 14 8 27 15 SSW 1020,8 20 0 0,0
15.01.2018 15:00:00 4,0 3,4 3,7 5,4 6,9 19 10 28 15 WSW 1021,4 15 0 0,0
15.01.2018 14:00:00 3,9 3,5 4,0 5,4 6,9 13 7 19 11 WSW 1022,0 9 0 0,0
15.01.2018 13:00:00 3,6 3,5 3,7 5,4 6,9 15 8 25 14 SW 1022,7 12 0 0,0
15.01.2018 12:00:00 3,2 3,1 3,2 5,4 6,9 15 8 21 11 SW 1023,9 0,5 0 0,0
15.01.2018 11:00:00 3,1 3,0 3,1 5,4 6,9 6 4 22 12 S 1024,7 10 15 0,0
15.01.2018 10:00:00 2,8 2,7 1,8 5,4 6,9 10 5 15 8 SW 1024,4 0,7 12 0,0
15.01.2018 09:00:00 2,4 2,3 2,0 5,4 6,9 11 6 15 8 SSW 1023,9 0,3 0 0,0
15.01.2018 08:00:00 2,7 2,6 2,5 5,4 6,9 8 4 16 9 SW 1023,4 0,1 0 0,0
15.01.2018 07:00:00 2,9 2,8 2,7 5,4 6,9 11 6 16 8 SSW 1022,9 0,1 0 0,0
15.01.2018 06:00:00 3,3 3,2 3,1 5,4 6,9 11 6 15 8 SSW 1022,3 0,1 0 0,0
15.01.2018 05:00:00 3,6 3,5 3,4 5,4 6,9 8 4 10 6 SW 1022,6 0,1 0 0,0
15.01.2018 04:00:00 3,7 3,6 3,4 5,4 6,9 3 2 10 5 WSW 1022,4 0,1 0 0,2
15.01.2018 03:00:00 3,7 3,4 3,3 5,4 6,9 4 2 6 3 WSW 1022,5 0,1 0 0,0
15.01.2018 02:00:00 3,8 3,2 3,3 5,4 6,9 2 1 5 3 SSE 1022,3 10 0 0,0
15.01.2018 01:00:00 3,8 3,4 3,3 5,4 6,9 4 2 7 4 NW 1022,6 14 0 0,0
15.01.2018 00:00:00 3,8 3,2 3,3 5,4 6,9 3 2 6 3 WNW 1022,2 10 0 0,0
14.01.2018 23:00:00 4,0 3,0 3,4 5,4 6,9 4 2 6 3 N 1021,5 10 0 0,0
14.01.2018 22:00:00 4,3 2,8 3,5 5,4 6,9 3 1 10 5 NE 1020,8 20 0 0,0
14.01.2018 21:00:00 4,2 2,7 3,5 5,4 6,9 6 3 21 11 SSE 1020,2 20 0 0,0
14.01.2018 20:00:00 4,2 2,7 3,4 5,4 6,9 8 4 16 9 SSE 1019,5 20 0 0,0
14.01.2018 19:00:00 4,2 2,7 3,3 5,4 7,0 9 5 16 9 SSE 1019,0 20 0 0,0
14.01.2018 18:00:00 4,1 2,6 3,4 5,3 6,9 6 3 21 12 ESE 1018,5 20 0 0,0
14.01.2018 17:00:00 4,1 2,6 3,5 5,3 6,9 10 5 29 16 SE 1017,8 20 0 0,0
14.01.2018 16:00:00 4,2 2,5 3,5 5,3 6,9 16 9 24 13 SE 1017,3 20 0 0,0
14.01.2018 15:00:00 4,1 2,6 3,7 5,3 6,9 7 4 14 7 ESE 1017,1 20 0 0,0
14.01.2018 14:00:00 4,0 2,7 3,4 5,3 7,0 5 3 10 5 SE 1016,8 20 0 0,0
14.01.2018 13:00:00 3,4 2,4 3,0 5,3 6,9 4 2 23 12 S 1017,2 20 0 0,2
14.01.2018 12:00:00 3,5 2,3 2,9 5,3 6,9 12 7 26 14 SE 1017,5 20 0 0,0
14.01.2018 11:00:00 3,3 2,3 1,9 5,4 7,0 11 6 24 13 ESE 1017,2 20 0 0,2
14.01.2018 10:00:00 2,3 1,6 1,7 5,4 7,0 11 6 22 12 SE 1016,8 20 0 0,2
14.01.2018 09:00:00 2,1 1,5 1,7 5,4 7,0 13 7 32 18 ESE 1016,5 20 0 0,4
14.01.2018 08:00:00 2,9 1,9 2,3 5,4 7,0 25 14 40 21 SE 1015,7 20 0 0,2
14.01.2018 07:00:00 3,1 1,9 2,5 5,4 7,0 23 13 44 24 ESE 1015,2 20 0 0,0
14.01.2018 06:00:00 3,3 2,1 2,6 5,4 7,0 29 16 55 30 SE 1014,8 20 0 0,2
14.01.2018 05:00:00 3,7 2,5 3,0 5,4 7,0 27 15 55 30 SE 1014,6 20 0 0,0
14.01.2018 04:00:00 4,4 2,9 3,6 5,3 7,0 33 18 56 30 SE 1014,5 20 0 0,2
14.01.2018 03:00:00 4,8 3,6 4,0 5,3 7,0 28 15 56 30 ESE 1014,3 20 0 0,0
14.01.2018 02:00:00 5,3 3,9 4,5 5,3 7,0 34 18 50 27 ESE 1014,4 19 0 0,0
14.01.2018 01:00:00 5,6 4,2 4,7 5,2 7,0 23 12 44 24 SE 1015,0 20 0 0,0
14.01.2018 00:00:00 5,5 4,3 4,6 5,2 7,0 16 8 50 27 SE 1015,9 20 0 0,0
13.01.2018 23:00:00 5,7 4,0 4,6 5,2 7,1 24 13 48 26 SE 1016,0 20 0 0,0
13.01.2018 22:00:00 5,4 3,9 4,6 5,2 7,1 26 14 53 29 SE 1016,1 20 0 0,0
13.01.2018 21:00:00 5,8 3,3 5,1 5,2 7,0 32 17 60 33 SSE 1016,0 20 0 0,0
13.01.2018 20:00:00 5,9 3,1 4,9 5,2 7,1 27 15 44 24 SE 1016,4 20 0 0,0
13.01.2018 19:00:00 5,5 2,8 4,5 5,1 7,1 27 14 66 36 SE 1016,6 20 0 0,0
13.01.2018 18:00:00 5,2 2,5 4,7 5,1 7,1 29 16 48 26 SE 1016,7 20 0 0,0
13.01.2018 17:00:00 5,1 2,3 4,7 5,1 7,1 27 15 48 26 SE 1016,9 20 0 0,0
13.01.2018 16:00:00 5,5 2,0 5,6 5,0 7,1 23 12 49 27 SE 1016,8 20 0 0,0
13.01.2018 15:00:00 5,3 1,4 5,4 5,0 7,1 22 12 50 27 SE 1017,1 20 0 0,0
13.01.2018 14:00:00 5,6 0,4 5,8 4,9 7,1 30 16 49 26 SE 1017,4 20 16 0,0
13.01.2018 13:00:00 6,9 -1,5 6,6 4,9 7,1 27 15 41 22 SE 1017,6 20 53 0,0
13.01.2018 12:00:00 5,7 -1,0 4,6 4,9 7,1 21 11 30 16 SE 1018,6 20 55 0,0
13.01.2018 11:00:00 3,5 -1,1 2,0 5,0 7,1 10 5 26 14 ESE 1019,9 20 52 0,0
13.01.2018 10:00:00 1,9 -1,7 2,0 5,0 7,1 18 10 28 15 ESE 1019,9 20 60 0,0
13.01.2018 09:00:00 1,1 -2,3 -2,6 5,1 7,1 6 3 13 7 E 1020,6 20 9 0,0
13.01.2018 08:00:00 -0,7 -2,6 -2,5 5,1 7,1 5 3 14 7 NNE 1021,0 20 0 0,0
13.01.2018 07:00:00 -0,4 -2,5 -2,4 5,2 7,1 6 4 17 9 NE 1021,1 20 0 0,0
13.01.2018 06:00:00 -0,1 -2,0 -2,0 5,3 7,1 6 4 14 7 NE 1021,3 20 0 0,0
13.01.2018 05:00:00 -0,2 -1,5 -1,8 5,3 7,1 6 4 14 8 E 1021,8 20 0 0,0
13.01.2018 04:00:00 -0,1 -1,1 -1,6 5,4 7,2 3 2 9 5 ESE 1022,3 20 0 0,0
13.01.2018 03:00:00 0,2 -0,4 -2,1 5,4 7,2 4 2 10 6 NE 1022,4 17 0 0,0
13.01.2018 02:00:00 0,5 -0,2 -1,1 5,5 7,2 6 3 9 5 ESE 1022,9 12 0 0,0
13.01.2018 01:00:00 1,2 0,2 -0,5 5,5 7,2 4 2 8 4 WNW 1023,5 20 0 0,0
13.01.2018 00:00:00 1,4 0,1 0,0 5,6 7,2 0 0 12 6 N 1024,0 20 0 0,0
12.01.2018 23:00:00 1,9 0,0 0,4 5,6 7,2 8 4 32 17 NE 1023,9 20 0 0,0
12.01.2018 22:00:00 2,4 0,3 1,1 5,6 7,2 7 4 23 12 NE 1024,0 20 0 0,0
12.01.2018 21:00:00 2,9 0,5 1,6 5,6 7,2 8 4 28 15 N 1023,8 20 0 0,0
12.01.2018 20:00:00 3,3 1,0 2,7 5,6 7,2 22 12 34 19 NW 1023,4 20 0 0,0
12.01.2018 19:00:00 3,6 1,3 3,1 5,6 7,2 20 11 34 19 NW 1023,1 20 0 0,0
12.01.2018 18:00:00 4,0 1,5 3,3 5,5 7,2 16 9 30 16 NW 1022,7 20 0 0,0
12.01.2018 17:00:00 4,4 0,7 3,7 5,5 7,2 22 12 35 19 NNW 1022,2 20 3 0,0
12.01.2018 16:00:00 5,6 0,9 6,6 5,4 7,2 18 10 31 17 N 1021,6 20 28 0,0
12.01.2018 15:00:00 5,3 1,0 5,8 5,3 7,3 21 12 38 20 NNW 1021,8 20 12 0,0
12.01.2018 14:00:00 5,4 0,9 6,8 5,2 7,2 15 8 33 18 NW 1022,0 20 42 0,0

tt = Température de l'air
td = dewpoint
tt 5cm = Température de l'air 5cm
tt -20cm = Température de l'air -20cm
tt -100cm = Température de l'air -100cm
ff = Vitesse du vent
fx = gusts
dd = Direction du vent
ppp = reduced air pressure
vv = visibility
sd = Ensoleillement
rr = Quantités de précipitations

stations d'obs. à proximité